181  
ASUS46 KSTO 250115  
RWRCA  
 
NORTHERN AND CENTRAL CA REGIONAL WEATHER ROUNDUP  
NATIONAL WEATHER SERVICE SACRAMENTO CA  
600 PM PDT FRI MAR 24 2017  
 
NOTE: FAIR INDICATES FEW OR NO CLOUDS BELOW 12,000 FEET WITH NO  
SIGNIFICANT WEATHER AND/OR S TO VISIBILITY
.  
 
CAZ001-003-250200-  
NORTHWEST AREA  
 
CITY SKY/WX TMP DP RH WIND PRES REMARKS
 
CRESCENT CITY CLOUDY 54 51 90 S15 30.11R  
UKIAH PTSUNNY 57 48 72 CALM 30.12S  

 
 
CAZ006-505>513-250200-  
BAY AREA  
 
CITY SKY/WX TMP DP RH WIND PRES REMARKS
 
SANTA ROSA CLOUDY 58 49 72 SW7 30.13R  
SAN RAFAEL N/A 58 MM MM MISG  
NAPA CLOUDY 58 54 86 S9 30.16R  
CONCORD CLOUDY 58 54 86 SW8 30.16S  
OAKLAND CITY N/A MM MM MM MISG  
OAKLAND CLOUDY 57 56 96 S7 30.17R  
SAN FRAN CITY N/A 55 MM 81 MISG  
SAN FRAN ARPT CLOUDY 57 52 83 NE3 30.16R  
LIVERMORE CLOUDY 55 52 89 S7 30.15S  
HAYWARD CLOUDY 57 53 86 S6 30.16S  
REDWOOD CITY N/A 55 MM 98 MISG  
MOFFETT ARPT CLOUDY 55 54 96 SE3 30.17S  
SAN JOSE ARPT LGT RAIN 56 52 86 SE6 30.16S  

 
CAZ034-037-514>518-250200-  
CENTRAL COAST  
 
CITY SKY/WX TMP DP RH WIND PRES REMARKS
 
WATSONVILLE LGT RAIN 54 54 100 CALM 30.18S  
SALINAS CLOUDY 58 52 80 E7 30.16S  
MONTEREY CLOUDY 58 53 84 S7 30.16F  
SAN LUIS OBISP CLOUDY 60 52 74 NW3 30.20F  
SANTA MARIA CLOUDY 59 49 69 W6 30.22S  

 
CAZ015-016-250200-  
NORTHERN SACRAMENTO VALLEY  
 
CITY SKY/WX TMP DP RH WIND PRES REMARKS
 
REDDING RAIN 51 50 96 S12 30.13S FOG  
RED BLUFF LGT RAIN 52 50 93 SE17 30.15S FOG  
OROVILLE LGT RAIN 52 49 89 SE14 30.19S  

 
CAZ016>018-250200-  
SOUTHERN SACRAMENTO VALLEY  
 
CITY SKY/WX TMP DP RH WIND PRES REMARKS
 
AUBURN CLOUDY 48 46 93 SE8 30.18S  
BEALE AFB CLOUDY 52 48 86 SE10 30.16F  
LINCOLN CLOUDY 54 45 71 S17 30.17R  
MARYSVILLE CLOUDY 52 49 89 SE6 30.18S  
SAC INTL ARPT CLOUDY 55 49 80 SE15 30.16S  
MATHER AIRPORT CLOUDY 55 48 76 SE9 30.18S  
DOWNTOWN SAC N/A 55 MM MM MISG  
SAC EXEC ARPT CLOUDY 54 49 83 SE14G23 30.18R  
VACAVILLE CLOUDY 55 54 96 SE8 30.17R  
TRAVIS AFB CLOUDY 55 54 96 SE9 30.14S  

 
CAZ019>021-250200-  
SAN JOAQUIN VALLEY  
 
CITY SKY/WX TMP DP RH WIND PRES REMARKS
 
STOCKTON CLOUDY 56 55 97 SE8 30.17R  
MODESTO CLOUDY 57 50 77 SE6 30.17F  
MERCED CLOUDY 55 46 71 SE8 30.18F  
LEMOORE LGT RAIN 59 49 69 NE8 30.18F  
FRESNO CLOUDY 57 47 69 NE9 30.19F  
HANFORD CLOUDY 62 50 64 N6 30.19F  
PORTERVILLE CLOUDY 63 49 60 N3 30.18F  
BAKERSFIELD CLOUDY 68 44 42 N13 30.16R  

 
CAZ011-012-071-250200-  
NORTHERN MOUNTAINS  
 
CITY SKY/WX TMP DP RH WIND PRES REMARKS
 
YREKA CLOUDY 50 36 58 S20 30.04R  
MOUNT SHASTA CLOUDY 40 37 89 E6 30.08S  
ALTURAS CLOUDY 41 35 79 W10 30.07S  

 
CAZ011-012-071-250200-  
SIERRA NEVADA MTNS  
 
CITY SKY/WX TMP DP RH WIND PRES REMARKS
 
BLUE CANYON LGT RAIN 34 34 100 SE7 30.15S VSB 1/4 WCI 28  
TAHOE VLY ARPT MIX PCPN 36 32 85 S8 30.10F WCI 30  
MAMMOTH LAKES LGT RAIN 38 33 81 SW10G18 30.19R WCI 31  

 
 
 
CLICK HERE TO GO TO PREVIOUS BULLETINS.

The Nexlab CA Page Main Text Page